Location: Newark
(43.9494°N, 6.8108°E)
Time: 22:33:06
(UTC+00:00)

A-11 Canister half - Pass Details

Date: 25 October 2019
Orbit: 1514 x 1685 km, 47.2° (Epoch: 21 November)

Event Time Altitude Azimuth Distance (km) Brightness Sun altitude
Rises 23:24:56 0° 221° (SW) 4,925 - -58.3°
Reaches altitude 10° 23:28:11 10° 217° (SW) 3,931 - -58.2°
Maximum altitude 23:37:56 56° 143° (SE) 1,913 - -58.0°
Exits shadow 23:47:24 10° 69° (ENE) 3,835 11.2 -57.6°
Drops below altitude 10° 23:47:24 10° 69° (ENE) 3,839 11.2 -57.6°
Sets 23:50:32 0° 66° (ENE) 4,803 11.9 -57.5°
